Station HCGN7 - 8654467 - USCG Station Hatteras, NC Image indicating link to RSS feed of recent meteorological observations for station HCGN7


Conditions at HCGN7 as of
(1:18 am EDT)
0518 GMT on 04/19/2024:
     

Click on the graph icon in the table below to see a time series plot of the last five days of that observation.

5-day plot - Wind Direction Wind Direction (WDIR): NE ( 50 deg true )
5-day plot - Wind Speed Wind Speed (WSPD): 12.0 kts
5-day plot - Wind Gust Wind Gust (GST): 18.1 kts
5-day plot - Atmospheric Pressure Atmospheric Pressure (PRES):30.06 in
5-day plot - Air Temperature Air Temperature (ATMP): 59.0 °F
5-day plot - Water Temperature Water Temperature (WTMP): 71.1 °F
5-day plot - Wind Speed at 10 Meters Wind Speed at 10 meters (WSPD10M): 13.6 kts
5-day plot - Wind Speed at 20 Meters Wind Speed at 20 meters (WSPD20M): 13.6 kts
5-day plot -  Wind Speed, Wind Gust and Atmospheric Pressure Combined plot of Wind Speed, Gust, and Air Pressure
NOS Water Level Observation Network Water Level
Previous observations
TIME
(EDT)
5-day plot - Wind Direction
WDIR
 
5-day plot - Wind Speed
WSPD
kts
5-day plot - Wind Gust
GST
kts
5-day plot - Wave Height
WVHT
ft
5-day plot - Dominant Wave Period
DPD
sec
5-day plot - Average Wave Period
APD
sec
5-day plot - Mean Wave Direction
MWD
 
5-day plot - Atmospheric Pressure
PRES
in
5-day plot - Pressure Tendency
PTDY
in
5-day plot - Air Temperature
ATMP
°F
5-day plot - Water Temperature
WTMP
°F
5-day plot - Dew Point
DEWP
°F
5-day plot - Salinity
SAL
psu
5-day plot - Visibility
VIS
nmi
5-day plot - Tide (above MLLW)
TIDE
ft
2024-04-19 01:12 am NE 12.0 19.0----30.07- 59.2 71.1----
2024-04-19 01:06 am NE 13.0 17.1----30.07- 59.2 71.2----
2024-04-19 01:00 am NE 12.0 17.1----30.07+0.00 59.4 71.2----
2024-04-19 12:54 am NE 12.0 21.0----30.07- 59.5 71.1----
2024-04-19 12:48 am NE 13.0 19.0----30.07- 59.7 71.1----
2024-04-19 12:42 am NE 13.0 18.1----30.07- 59.9 71.2----
2024-04-19 12:36 am NE 9.9 18.1----30.07- 60.3 71.4----
2024-04-19 12:30 amENE 12.0 17.1----30.07- 60.6 71.4----
2024-04-19 12:24 amENE 12.0 19.0----30.07- 60.8 71.4----
2024-04-19 12:18 am NE 12.0 19.0----30.07- 61.0 71.4----
2024-04-19 12:12 amENE 13.0 18.1----30.07- 61.2 71.6----
2024-04-19 12:06 amENE 15.0 21.0----30.07- 61.2 71.6----
2024-04-19 12:00 amENE 13.0 18.1----30.08+0.04 61.3 71.6----
2024-04-18 11:54 pmENE 12.0 17.1----30.08- 61.5 71.6----
2024-04-18 11:48 pm NE 12.0 18.1----30.08- 61.3 71.6----
2024-04-18 11:42 pm NE 11.1 15.9----30.08- 61.3 71.8----
2024-04-18 11:36 pmENE 13.0 17.1----30.08- 61.3 71.8----
2024-04-18 11:30 pm NE 12.0 17.1----30.08- 61.7 71.8----
2024-04-18 11:24 pm NE 9.9 14.0----30.08- 61.9 71.8----
2024-04-18 11:18 pm NE 8.9 15.9----30.08- 62.1 71.8----
2024-04-18 11:12 pm NE 8.9 13.0----30.07- 62.2 72.0----
2024-04-18 11:06 pm NE 8.9 13.0----30.07- 62.6 72.0----
2024-04-18 11:00 pm NE 8.9 14.0----30.07+0.04 63.0 71.8----
2024-04-18 10:54 pm NE 7.0 13.0----30.07- 63.1 71.8----
2024-04-18 10:48 pm NE 8.9 13.0----30.07- 63.3 71.8----
2024-04-18 10:42 pmENE 8.9 14.0----30.07- 63.7 72.1----
2024-04-18 10:36 pmENE 8.9 11.1----30.07- 64.0 72.1----
2024-04-18 10:30 pm NE 8.0 12.0----30.07- 64.2 72.1----
2024-04-18 10:24 pmENE 8.0 9.9----30.07- 64.2 72.0----
2024-04-18 10:18 pmENE 7.0 11.1----30.06- 64.4 72.0----
2024-04-18 10:12 pmENE 6.0 8.9----30.06- 64.0 72.0----
2024-04-18 10:06 pm NE 5.1 7.0----30.06- 63.5 72.0----
2024-04-18 10:00 pmENE 5.1 7.0----30.06+0.05 63.0 72.0----
2024-04-18 09:54 pmENE 5.1 7.0----30.06- 62.6 72.0----
2024-04-18 09:48 pmENE 5.1 7.0----30.06- 62.8 72.1----
2024-04-18 09:42 pmENE 4.1 6.0----30.05- 63.1 72.1----
2024-04-18 09:36 pm E 5.1 8.0----30.05- 63.1 72.1----
2024-04-18 09:30 pm E 4.1 6.0----30.05- 63.1 72.0----
2024-04-18 09:24 pm E 6.0 8.9----30.05- 63.1 72.1----
2024-04-18 09:18 pm E 5.1 8.0----30.05- 63.0 72.1----
2024-04-18 09:12 pm E 6.0 8.9----30.05- 63.0 72.1----
2024-04-18 09:06 pm E 6.0 8.0----30.04- 63.1 72.1----
2024-04-18 09:00 pm E 6.0 8.0----30.04+0.04 63.3 72.1----
2024-04-18 08:54 pm E 6.0 8.9----30.04- 63.7 72.1----
2024-04-18 08:48 pm E 6.0 9.9----30.04- 63.9 72.1----
2024-04-18 08:42 pm E 6.0 8.9----30.03- 63.9 72.3----
2024-04-18 08:36 pm E 6.0 8.9----30.03- 64.2 72.3----
2024-04-18 08:30 pm E 8.0 9.9----30.03- 64.0 72.3----
2024-04-18 08:24 pm E 8.9 12.0----30.03- 64.0 72.3----
2024-04-18 08:18 pm E 7.0 11.1----30.03- 64.4 72.3----
2024-04-18 08:12 pm E 6.0 8.9----30.03- 64.4 72.1----
2024-04-18 08:06 pm E 6.0 11.1----30.03- 64.6 72.1----
2024-04-18 08:00 pm E 7.0 11.1----30.03+0.05 64.8 72.1----
2024-04-18 07:54 pm E 6.0 8.9----30.03- 64.8 72.3----
2024-04-18 07:48 pm E 6.0 8.9----30.03- 65.3 72.3----
2024-04-18 07:42 pm E 7.0 9.9----30.03- 65.3 72.1----
2024-04-18 07:36 pm E 6.0 11.1----30.02- 65.7 72.1----
2024-04-18 07:30 pm E 8.0 11.1----30.02- 65.8 72.3----
2024-04-18 07:24 pm E 6.0 8.9----30.02- 66.4 72.3----
2024-04-18 07:00 pm E 7.0 9.9----30.02+0.04 67.8 72.3----
2024-04-18 06:54 pmENE 8.0 13.0----30.02- 67.8 72.3----
2024-04-18 06:48 pmENE 8.0 11.1----30.01- 68.4 72.3----
2024-04-18 06:42 pmENE 8.0 12.0----30.01- 68.7 72.3----
2024-04-18 06:36 pm NE 8.0 14.0----30.01- 69.3 72.3----
2024-04-18 06:30 pmENE 8.9 12.0----30.01- 70.0 72.3----
2024-04-18 06:24 pmENE 8.0 13.0----30.01- 70.9 72.3----
2024-04-18 06:18 pmENE 7.0 11.1----30.01- 71.2 72.3----
2024-04-18 06:12 pmENE 7.0 12.0----30.00- 71.2 72.3----
2024-04-18 06:06 pmENE 9.9 13.0----30.00- 70.9 72.3----
2024-04-18 06:00 pmENE 8.9 13.0----30.00+0.02- 72.5----
2024-04-18 05:54 pm NE 9.9 12.0----30.00-- 72.3----
2024-04-18 05:48 pm NE 8.0 12.0----29.99- 71.8 72.3----
2024-04-18 05:42 pmENE 8.9 12.0----29.99- 72.0 72.5----
2024-04-18 05:36 pm NE 7.0 12.0----29.99- 72.3 72.3----
2024-04-18 05:30 pmENE 8.0 12.0----29.99- 72.1 72.3----
2024-04-18 05:24 pm NE 8.0 12.0----29.99- 72.5 72.5----
2024-04-18 05:18 pm NE 8.9 12.0----29.99- 72.1 72.5----
2024-04-18 05:12 pm NE 8.9 12.0----29.98- 72.5 72.5----
2024-04-18 05:06 pmENE 7.0 12.0----29.98- 73.0 72.5----
2024-04-18 05:00 pmENE 8.0 12.0----29.98-0.01 73.0 72.5----
2024-04-18 04:54 pmENE 9.9 14.0----29.98- 72.7 72.5----
2024-04-18 04:48 pmENE 9.9 13.0----29.98- 72.9 72.3----
2024-04-18 04:42 pmENE 9.9 13.0----29.98- 72.9 72.1----
2024-04-18 04:36 pm NE 8.0 13.0----29.98- 73.2 72.1----
2024-04-18 04:30 pmENE 8.9 13.0----29.98- 73.2 72.0----
2024-04-18 04:24 pmNNE 9.9 13.0----29.98- 72.9 72.0----
2024-04-18 04:18 pmNNE 8.9 12.0----29.98- 72.1 71.8----
2024-04-18 04:12 pmNNE 8.9 9.9----29.98- 72.3 71.6----
2024-04-18 04:06 pm N 5.1 6.0----29.98- 73.9 71.6----
2024-04-18 04:00 pmSSE 1.0 2.9----29.98-0.01 75.4 71.8----
2024-04-18 03:54 pm E 1.0 2.9----29.98- 75.6 71.8----
2024-04-18 03:48 pmSSE 2.9 4.1----29.98- 75.0 71.8----
2024-04-18 03:42 pm W 1.0 4.1----29.98- 75.4 71.8----
2024-04-18 03:36 pmWNW 4.1 5.1----29.98- 75.4 71.6----
2024-04-18 03:30 pmWSW 4.1 5.1----29.98- 75.2 71.4----
2024-04-18 03:24 pm SW 4.1 6.0----29.98- 73.9 71.4----
2024-04-18 03:18 pm SW 4.1 7.0----29.98- 73.8 71.4----
2024-04-18 03:12 pmSSW 6.0 8.0----29.98- 72.7 71.6----
2024-04-18 03:06 pm SW 6.0 8.9----29.98- 73.0 71.6----
2024-04-18 03:00 pm SW 8.9 9.9----29.98-0.03 72.1 71.4----
2024-04-18 02:54 pm SW 7.0 9.9----29.98- 72.9 71.4----
2024-04-18 02:48 pm SW 8.0 9.9----29.98- 73.0 71.4----
2024-04-18 02:42 pm SW 8.0 9.9----29.98- 72.9 71.2----
2024-04-18 02:36 pm SW 7.0 8.9----29.99- 73.2 71.2----
2024-04-18 02:30 pm SW 8.0 8.9----29.99- 72.9 71.4----
2024-04-18 02:24 pm SW 8.0 9.9----29.99- 72.7 71.4----
2024-04-18 02:18 pm SW 7.0 9.9----29.99- 72.5 71.4----
2024-04-18 02:12 pm SW 8.0 9.9----29.99- 72.3 70.9----
2024-04-18 02:06 pm SW 6.0 9.9----29.99- 73.4 70.7----
2024-04-18 02:00 pm SW 5.1 8.0----30.00-0.02 73.0 70.7----
2024-04-18 01:54 pm SW 5.1 8.0----30.00- 73.9 70.5----
2024-04-18 01:48 pm SW 5.1 8.0----30.00- 74.5 70.7----
2024-04-18 01:42 pmSSW 7.0 9.9----30.00- 73.8 70.9----
2024-04-18 01:36 pmWSW 5.1 8.9----30.00- 75.2 70.5----
2024-04-18 01:30 pm W 8.0 8.9----30.00- 75.0 69.8----
2024-04-18 01:24 pm W 8.0 9.9----29.99- 74.7 69.8----
2024-04-18 01:18 pm W 7.0 9.9----29.99- 75.2 69.8----
2024-04-18 01:12 pm W 8.0 9.9----29.99- 74.1 69.8----
2024-04-18 01:06 pm W 8.0 9.9----29.99- 74.3 69.6----
2024-04-18 01:00 pm W 8.0 11.1----30.00-0.02 73.9 70.0----
2024-04-18 12:54 pm W 7.0 11.1----30.00- 74.5 69.8----
2024-04-18 12:48 pm W 7.0 9.9----30.00- 74.7 69.6----
2024-04-18 12:42 pm W 8.0 11.1----30.00- 73.6 69.6----
2024-04-18 12:36 pm W 8.0 12.0----30.00- 73.6 69.4----
2024-04-18 12:30 pm W 8.9 12.0----30.00- 73.2 69.4----
2024-04-18 12:24 pm W 8.9 13.0----30.01- 73.0 69.4----
2024-04-18 12:18 pm W 11.1 13.0----30.01- 72.5 69.4----
2024-04-18 12:12 pm W 8.0 12.0----30.01- 73.2 69.4----
2024-04-18 12:06 pm W 8.9 12.0----30.01- 73.0 69.3----
2024-04-18 12:00 pm W 8.9 12.0----30.01+0.00 73.0 69.4----
2024-04-18 11:54 am W 9.9 14.0----30.01- 72.7 69.3----
2024-04-18 11:48 am W 9.9 13.0----30.01- 72.7 69.3----
2024-04-18 11:42 am W 9.9 13.0----30.01- 72.5 69.3----
2024-04-18 11:36 am W 9.9 13.0----30.01- 72.3 69.3----
2024-04-18 11:30 am W 9.9 14.0----30.01- 72.1 69.1----
2024-04-18 11:24 am W 8.9 13.0----30.02- 72.7 69.1----
2024-04-18 11:18 am W 11.1 13.0----30.02- 72.0 69.1----
2024-04-18 11:12 am W 11.1 13.0----30.02- 71.8 69.1----
2024-04-18 11:06 am W 11.1 14.0----30.02- 71.6 68.7----
2024-04-18 11:00 am W 12.0 15.0----30.02+0.01 71.4 68.7----
2024-04-18 10:54 am W 12.0 14.0----30.02- 71.4 68.7----
2024-04-18 10:48 am W 9.9 14.0------------
2024-04-18 10:42 am W 11.1 13.0------------
2024-04-18 10:36 am W 12.0 14.0------------
2024-04-18 10:30 am W 11.1 15.0----30.02- 70.9 68.7----
2024-04-18 10:24 am W 9.9 15.0----30.03- 70.9 68.7----
2024-04-18 10:18 am W 9.9 15.9----30.02- 70.9 68.7----
2024-04-18 10:12 am W 11.1 15.0----30.02- 71.1 68.7----
2024-04-18 10:06 am W 12.0 15.9----30.02- 70.9 68.7----
2024-04-18 10:00 am W 12.0 17.1----30.01+0.01 70.9 68.5----
2024-04-18 09:54 am W 13.0 17.1----30.01- 70.9 68.5----
2024-04-18 09:48 amWSW 13.0 19.0----30.01- 70.9 68.5----
2024-04-18 09:42 amWSW 13.0 20.0----30.01- 70.7 68.5----
2024-04-18 09:36 amWSW 13.0 17.1----30.01- 70.3 68.5----
2024-04-18 09:30 amWSW 11.1 14.0----30.01- 70.3 68.5----
2024-04-18 09:24 amWSW 11.1 15.9----30.01- 69.8 68.5----
2024-04-18 09:18 amWSW 9.9 15.0----30.01- 69.3 68.5----
2024-04-18 09:12 amWSW 9.9 14.0----30.01- 69.1 68.5----
2024-04-18 09:06 amWSW 8.9 15.0----30.01- 68.7 68.4----
2024-04-18 09:00 amWSW 8.9 15.0----30.01+0.02 68.5 68.5----
2024-04-18 08:54 amWSW 11.1 14.0----30.01- 68.0 68.5----
2024-04-18 08:48 amWSW 12.0 15.9----30.01- 68.2 68.5----
2024-04-18 08:42 am SW 9.9 15.0----30.01- 68.0 68.4----
2024-04-18 08:36 am SW 9.9 15.0----30.01- 68.0 68.5----
2024-04-18 08:30 amWSW 9.9 17.1----30.02- 67.8 68.5----
2024-04-18 08:24 amWSW 11.1 17.1----30.02- 67.6 68.5----
2024-04-18 08:18 am SW 9.9 15.0----30.01- 67.5 68.4----
2024-04-18 08:12 am SW 12.0 15.0----30.01- 67.3 68.4----
2024-04-18 08:06 am SW 9.9 15.9----30.01- 67.1 68.4----
2024-04-18 08:00 am SW 12.0 15.0----30.01+0.01 67.1 68.4----
2024-04-18 07:54 am SW 9.9 14.0----30.01- 66.9 68.4----
2024-04-18 07:48 am SW 12.0 15.0----30.01- 66.9 68.4----
2024-04-18 07:42 am SW 12.0 15.9----30.01- 66.7 68.4----
2024-04-18 07:36 am SW 11.1 17.1----30.01- 66.7 68.4----
2024-04-18 07:30 am SW 11.1 17.1----30.01- 66.7 68.4----
2024-04-18 07:24 am SW 12.0 15.0----30.01- 66.6 68.4----
2024-04-18 07:18 am SW 11.1 15.0----30.01- 66.6 68.4----
2024-04-18 07:12 am SW 11.1 17.1----30.01- 66.6 68.4----
2024-04-18 07:06 am SW 9.9 15.9----30.01- 66.4 68.4----
2024-04-18 07:00 am SW 12.0 15.9----30.01+0.00 66.4 68.4----
2024-04-18 06:54 am SW 11.1 15.0----30.00- 66.2 68.5----
2024-04-18 06:48 am SW 11.1 17.1----30.00- 66.4 68.5----
2024-04-18 06:42 am SW 12.0 17.1----29.99- 66.4 68.5----
2024-04-18 06:36 am SW 9.9 15.9----30.00- 66.4 68.5----
2024-04-18 06:30 am SW 11.1 15.9----30.00- 66.4 68.5----
2024-04-18 06:24 am SW 11.1 15.9----29.99- 66.6 68.5----
2024-04-18 06:18 am SW 11.1 15.0----30.00- 66.6 68.5----
2024-04-18 06:12 am SW 11.1 15.0----30.00- 66.7 68.5----
2024-04-18 06:06 am SW 12.0 15.9----29.99- 66.7 68.5----
2024-04-18 06:00 am SW 11.1 15.0----29.99-0.03 66.7 68.5----
2024-04-18 05:54 am SW 12.0 17.1----29.99- 66.7 68.5----
2024-04-18 05:48 am SW 12.0 15.9----29.99- 66.7 68.5----
2024-04-18 05:42 am SW 11.1 15.0----29.99- 66.7 68.5----
2024-04-18 05:36 am SW 12.0 17.1----30.00- 66.9 68.5----
2024-04-18 05:30 am SW 11.1 19.0----30.00- 66.9 68.5----
2024-04-18 05:24 am SW 13.0 17.1----30.00- 66.9 68.5----
2024-04-18 05:18 am SW 12.0 17.1----30.00- 66.9 68.7----
2024-04-18 05:12 am SW 13.0 20.0----30.00- 66.9 68.7----
2024-04-18 05:06 am SW 12.0 17.1----30.00- 67.1 68.7----
2024-04-18 05:00 am SW 12.0 17.1----30.00-0.03 67.1 68.7----
2024-04-18 04:54 am SW 11.1 15.9----30.00- 67.3 68.7----
2024-04-18 04:48 am SW 9.9 15.0----30.00- 67.3 68.7----
2024-04-18 04:42 am SW 11.1 15.0----30.00- 67.3 68.7----
2024-04-18 04:36 am SW 12.0 15.0----30.00- 67.5 68.7----
2024-04-18 04:30 am SW 11.1 14.0----30.00- 67.6 68.7----
2024-04-18 04:24 am SW 9.9 15.9----30.00- 67.8 68.7----
2024-04-18 04:18 am SW 13.0 18.1----30.01- 68.0 68.7----
2024-04-18 04:12 amWSW 11.1 15.0----30.01- 68.2 68.7----
2024-04-18 04:06 am SW 11.1 19.0----30.00- 68.4 68.7----
2024-04-18 04:00 am SW 11.1 15.0----30.00-0.04 68.0 68.7----
2024-04-18 03:54 amWSW 12.0 17.1----30.01- 68.0 68.7----
2024-04-18 03:48 am SW 14.0 20.0----30.00- 68.2 68.7----
2024-04-18 03:42 amWSW 14.0 21.0----30.01- 68.2 68.7----
2024-04-18 03:36 amWSW 14.0 19.0----30.01- 68.2 68.7----
2024-04-18 03:30 amWSW 13.0 17.1----30.01- 68.2 68.7----
2024-04-18 03:24 am SW 11.1 15.9----30.02- 67.8 68.7----
2024-04-18 03:18 amWSW 12.0 15.9----30.02- 67.5 68.7----
2024-04-18 03:12 amWSW 9.9 14.0----30.02- 67.1 68.7----
2024-04-18 03:06 am SW 8.9 12.0----30.02- 66.9 68.7----
2024-04-18 03:00 am SW 8.9 13.0----30.03-0.02 66.9 68.7----
2024-04-18 02:54 amWSW 9.9 14.0----30.03- 67.1 68.7----
2024-04-18 02:48 am SW 9.9 14.0----30.03- 67.1 68.7----
2024-04-18 02:42 am SW 8.9 13.0----30.02- 67.1 68.7----
2024-04-18 02:36 am SW 8.9 12.0----30.03- 67.1 68.7----
2024-04-18 02:30 am SW 8.0 12.0----30.03- 67.1 68.7----
2024-04-18 02:24 am SW 8.9 12.0----30.03- 67.1 68.7----
2024-04-18 02:18 am SW 8.9 12.0----30.03- 67.1 68.7----
2024-04-18 02:12 am SW 8.0 14.0----30.03- 67.3 68.7----
2024-04-18 02:06 am SW 8.9 14.0----30.03- 67.3 68.7----
2024-04-18 02:00 am SW 8.9 15.0----30.03-0.02 67.3 68.7----
2024-04-18 01:54 am SW 8.9 17.1----30.03- 67.5 68.7----